K9BM Weather Reports


time (UTC)temp
F
wind
direction
speed
knots
gust
knots
rain 1hr
in
rain 24hr
in
rain mn
in
humidity
%
barometer
mb
20260508065004 46 242 6.1 8.7 0.00 0.05 0.00 82 1011.1
20260508064504 46 223 4.3 6.1 0.00 0.06 0.00 82 1011.1
20260508064004 46 234 4.3 6.1 0.00 0.08 0.00 82 1011.1
20260508063504 46 225 4.3 7.0 0.00 0.08 0.00 82 1011.1
20260508062505 47 239 5.2 7.0 0.00 0.08 0.00 82 1011.1
20260508062004 47 251 5.2 8.7 0.00 0.08 0.00 82 1011.0
20260508061504 47 250 5.2 8.7 0.00 0.08 0.00 83 1011.0
20260508061005 46 235 5.2 7.0 0.00 0.08 0.00 84 1010.9
20260508060005 46 255 5.2 7.0 0.00 0.08 0.00 84 1011.0
20260508055504 46 242 5.2 7.0 0.00 0.08 0.08 84 1010.9
20260508055004 46 244 5.2 7.8 0.00 0.08 0.08 84 1010.9
20260508054004 46 247 6.1 10.4 0.00 0.08 0.08 84 1010.9
20260508053504 46 245 5.2 10.4 0.00 0.08 0.08 84 1010.9
20260508053004 46 245 6.1 8.7 0.00 0.08 0.08 85 1010.8
20260508052004 47 240 5.2 8.7 0.00 0.08 0.08 83 1011.0
20260508051504 47 235 6.1 10.4 0.00 0.08 0.08 84 1011.0
20260508051004 47 267 7.8 10.4 0.00 0.08 0.08 85 1010.9
20260508050004 46 249 4.3 6.1 0.00 0.08 0.08 86 1011.0
20260508045504 46 233 5.2 6.1 0.00 0.08 0.08 86 1011.0
20260508044005 46 241 4.3 5.2 0.00 0.08 0.08 86 1011.0
20260508043005 47 238 2.6 4.3 0.00 0.08 0.08 85 1011.0
20260508042504 47 245 2.6 4.3 0.00 0.08 0.08 85 1011.0
20260508041504 47 255 2.6 4.3 0.00 0.08 0.08 84 1011.0
20260508040004 47 240 4.3 5.2 0.00 0.08 0.08 84 1011.0
20260508035504 47 243 4.3 5.2 0.00 0.08 0.08 85 1010.9
20260508034505 48 261 4.3 5.2 0.00 0.08 0.08 84 1010.7
20260508034005 48 230 3.5 7.0 0.00 0.08 0.08 83 1010.7
20260508033504 48 204 5.2 7.0 0.00 0.08 0.08 82 1010.6
20260508033005 49 203 3.5 7.8 0.00 0.08 0.08 82 1010.6
20260508032005 49 197 5.2 8.7 0.00 0.08 0.08 82 1010.4
20260508031504 49 192 6.1 7.8 0.00 0.08 0.08 82 1010.3
20260508031004 49 193 6.1 7.8 0.00 0.08 0.08 81 1010.2
20260508025004 50 203 2.6 6.1 0.00 0.08 0.08 80 1010.0
20260508024504 50 203 1.7 7.8 0.00 0.08 0.08 80 1009.9
20260508024005 50 202 5.2 7.8 0.01 0.08 0.08 80 1009.7
20260508023505 50 201 2.6 5.2 0.01 0.08 0.08 80 1009.6
20260508023005 50 181 2.6 5.2 0.01 0.08 0.08 80 1009.6
20260508022504 50 163 4.3 7.8 0.01 0.08 0.08 81 1009.5
20260508022004 50 162 4.3 10.4 0.01 0.08 0.08 81 1009.4
20260508021504 51 167 7.0 10.4 0.01 0.08 0.08 80 1009.3
20260508020004 51 177 6.1 10.4 0.01 0.08 0.08 81 1009.3
20260508015504 51 179 7.8 10.4 0.01 0.08 0.08 81 1009.3
20260508015004 51 138 4.3 8.7 0.01 0.08 0.08 82 1009.1
20260508014504 51 164 5.2 8.7 0.01 0.08 0.08 81 1009.4
20260508014004 51 169 6.1 7.8 0.00 0.07 0.07 79 1009.3
20260508013004 51 175 6.1 10.4 0.00 0.07 0.07 78 1009.1
20260508012504 51 166 7.8 10.4 0.00 0.07 0.07 79 1008.8
20260508012004 51 156 6.1 10.4 0.00 0.07 0.07 78 1008.6
20260508011504 51 144 6.1 10.4 0.01 0.07 0.07 77 1008.8
20260508011004 51 143 7.8 10.4 0.01 0.07 0.07 77 1008.6
20260508010004 51 94 5.2 10.4 0.01 0.07 0.07 79 1008.8
20260508005504 51 104 6.1 10.4 0.01 0.07 0.07 80 1008.7
20260508005004 51 90 7.0 10.4 0.01 0.07 0.07 80 1008.5
20260508004504 51 87 7.8 10.4 0.01 0.07 0.07 82 1008.3
20260508003504 50 89 7.8 11.3 0.01 0.07 0.07 83 1008.1
20260508002504 51 44 7.8 15.6 0.01 0.07 0.07 79 1009.0
20260508002004 52 24 11.3 15.6 0.01 0.07 0.07 78 1009.0
20260508001504 53 15 10.4 17.4 0.00 0.06 0.06 74 1009.1
20260508001004 54 17 10.4 17.4 0.00 0.06 0.06 69 1008.9
20260508000004 56 32 12.2 18.2 0.00 0.06 0.06 61 1008.6
20260507235504 57 24 8.7 11.3 0.00 0.06 0.06 56 1008.4
20260507235004 58 26 8.7 11.3 0.00 0.06 0.06 54 1008.0
20260507234504 58 30 7.8 11.3 0.00 0.06 0.06 52 1007.8
20260507234005 59 42 5.2 10.4 0.00 0.06 0.06 50 1007.7
20260507233505 60 35 7.0 10.4 0.00 0.06 0.06 48 1007.6
20260507233005 60 34 6.1 8.7 0.00 0.06 0.06 46 1007.4
20260507231505 61 116 0.0 0.0 0.00 0.06 0.06 46 1007.4
20260507231005 60 134 0.0 0.0 0.00 0.06 0.06 45 1007.4
20260507230005 60 135 0.9 2.6 0.00 0.06 0.06 49 1007.3
20260507225505 59 131 1.7 2.6 0.00 0.06 0.06 52 1007.3
20260507225005 58 128 1.7 2.6 0.00 0.06 0.06 54 1007.3
20260507224505 58 103 1.7 2.6 0.00 0.06 0.06 53 1007.4
20260507224005 57 60 0.9 2.6 0.00 0.06 0.06 55 1007.5
20260507223505 57 28 0.0 2.6 0.00 0.06 0.06 56 1007.4
20260507223005 56 29 0.9 2.6 0.00 0.06 0.06 56 1007.4
20260507222505 56 28 1.7 4.3 0.00 0.06 0.06 58 1007.4
20260507222005 55 26 2.6 7.8 0.00 0.06 0.06 59 1007.5
20260507221505 55 29 4.3 7.8 0.00 0.06 0.06 59 1007.5
20260507221005 55 17 4.3 8.7 0.00 0.06 0.06 61 1007.6
20260507220005 55 27 4.3 12.2 0.00 0.06 0.06 65 1007.6
20260507215505 55 21 6.1 18.2 0.00 0.06 0.06 63 1007.6
20260507214505 56 346 15.6 20.0 0.00 0.06 0.06 56 1007.8
20260507214005 57 358 6.1 15.6 0.00 0.06 0.06 57 1007.7
20260507213005 57 11 10.4 20.0 0.00 0.06 0.06 56 1007.9
20260507212505 59 12 12.2 20.0 0.00 0.06 0.06 51 1007.6
20260507212005 62 22 10.4 20.0 0.00 0.06 0.06 45 1007.6
20260507211506 63 25 6.1 11.3 0.00 0.06 0.06 43 1007.5
20260507211005 63 33 6.1 11.3 0.00 0.06 0.06 43 1007.6
20260507210006 62 27 5.2 11.3 0.00 0.06 0.06 43 1007.5
20260507205505 62 34 6.1 11.3 0.00 0.06 0.06 44 1007.5
20260507204505 63 35 0.9 10.4 0.00 0.06 0.06 44 1007.4
20260507204005 62 24 4.3 11.3 0.00 0.06 0.06 45 1007.4
20260507203505 62 346 3.5 11.3 0.00 0.06 0.06 45 1007.4
20260507203005 62 17 3.5 10.4 0.00 0.06 0.06 43 1007.4
20260507202505 62 10 5.2 8.7 0.00 0.06 0.06 46 1007.4
20260507201005 61 116 0.9 5.2 0.00 0.06 0.06 48 1007.6
20260507200005 59 73 0.0 0.0 0.00 0.06 0.06 51 1007.7
20260507195505 59 73 0.0 2.6 0.00 0.06 0.06 51 1007.6
20260507195005 59 73 0.9 4.3 0.00 0.06 0.06 52 1007.7
20260507194504 58 72 1.7 4.3 0.00 0.06 0.06 55 1007.8
20260507194005 58 53 1.7 4.3 0.00 0.06 0.06 54 1007.8
20260507193505 58 52 1.7 4.3 0.00 0.06 0.06 56 1007.9
20260507193005 58 21 0.9 5.2 0.00 0.06 0.06 58 1008.0
20260507192005 58 75 1.7 6.1 0.00 0.06 0.06 57 1008.0
20260507191505 58 99 0.9 7.8 0.00 0.06 0.06 59 1008.1
20260507191005 58 101 4.3 7.8 0.00 0.06 0.06 60 1008.1
20260507185505 57 82 3.5 7.0 0.00 0.06 0.06 61 1008.2
20260507185006 57 62 4.3 7.0 0.00 0.06 0.06 59 1008.2
20260507184504 57 88 2.6 7.0 0.00 0.06 0.06 60 1008.2
20260507184005 56 63 2.6 7.0 0.00 0.06 0.06 60 1008.3
20260507183505 56 85 3.5 7.8 0.00 0.06 0.06 60 1008.3
20260507183004 56 36 2.6 7.8 0.00 0.06 0.06 61 1008.3
20260507182005 56 43 2.6 7.8 0.00 0.06 0.06 61 1008.2
20260507181505 56 62 4.3 10.4 0.00 0.06 0.06 58 1008.2
20260507181005 56 31 4.3 10.4 0.00 0.06 0.06 60 1008.1
20260507175505 57 36 7.8 13.0 0.00 0.06 0.06 61 1008.1
20260507175005 57 35 6.1 13.0 0.00 0.06 0.06 62 1008.0
20260507174005 56 52 5.2 10.4 0.00 0.06 0.06 64 1007.9
20260507173505 56 57 4.3 10.4 0.00 0.06 0.06 63 1008.0
20260507173005 57 62 6.1 10.4 0.00 0.06 0.06 63 1007.9
20260507172505 57 74 3.5 7.0 0.00 0.06 0.06 62 1007.9
20260507172005 57 35 0.9 10.4 0.00 0.06 0.06 61 1007.9
20260507171504 57 342 3.5 10.4 0.00 0.06 0.06 61 1007.9
20260507171005 57 306 5.2 10.4 0.00 0.06 0.06 59 1007.8
20260507170005 56 282 7.8 11.3 0.00 0.06 0.06 62 1007.8
20260507165505 56 262 7.8 10.4 0.00 0.06 0.06 63 1007.8
20260507165005 56 265 7.8 10.4 0.00 0.06 0.06 65 1007.9
20260507164504 55 267 7.8 10.4 0.00 0.06 0.06 66 1007.9
20260507163505 55 267 8.7 13.0 0.00 0.06 0.06 67 1008.1
20260507163005 55 267 9.6 13.0 0.00 0.06 0.06 67 1008.0
20260507162005 54 248 7.0 10.4 0.00 0.06 0.06 67 1008.0
20260507161505 54 261 7.8 10.4 0.00 0.06 0.06 66 1007.9
20260507161005 54 252 6.1 10.4 0.00 0.06 0.06 68 1007.9
20260507160005 54 272 7.8 10.4 0.00 0.06 0.06 66 1007.9
20260507155505 54 270 7.8 10.4 0.00 0.06 0.06 65 1007.9
20260507155005 54 269 7.8 10.4 0.00 0.06 0.06 66 1007.9
20260507154505 54 284 6.1 10.4 0.00 0.06 0.06 66 1007.9
20260507154006 54 270 7.8 11.3 0.00 0.06 0.06 65 1007.9
20260507153505 54 247 8.7 13.9 0.00 0.06 0.06 65 1007.9
20260507153005 54 258 8.7 13.9 0.00 0.06 0.06 66 1007.8
20260507152505 53 262 8.7 17.4 0.00 0.06 0.06 67 1007.8
20260507152005 53 268 8.7 17.4 0.00 0.06 0.06 67 1007.8
20260507151505 53 256 11.3 17.4 0.00 0.06 0.06 66 1007.9
20260507151005 53 278 12.2 17.4 0.00 0.06 0.06 66 1007.9
20260507150006 53 262 11.3 17.4 0.00 0.06 0.06 66 1007.7
20260507145505 53 266 12.2 17.4 0.00 0.06 0.06 68 1007.6
20260507145005 53 263 13.0 17.4 0.00 0.06 0.06 67 1007.7
20260507144505 53 262 13.0 17.4 0.00 0.06 0.06 67 1007.6
20260507144005 53 258 12.2 17.4 0.00 0.06 0.06 67 1007.6
20260507143504 52 252 12.2 18.2 0.00 0.06 0.06 69 1007.7
20260507143004 52 247 12.2 18.2 0.00 0.06 0.06 70 1007.7
20260507142505 51 237 11.3 17.4 0.00 0.06 0.06 71 1007.6
20260507141505 51 253 11.3 20.0 0.00 0.06 0.06 72 1007.6
20260507135511 51 272 13.9 19.1 0.00 0.06 0.06 72 1007.8
20260507135004 51 256 13.9 22.6 0.00 0.06 0.06 72 1007.8
20260507134505 51 265 15.6 24.3 0.00 0.06 0.06 72 1007.8
20260507134005 50 266 18.2 24.3 0.00 0.06 0.06 73 1007.9
20260507133504 50 255 18.2 22.6 0.00 0.06 0.06 73 1008.0
20260507132505 49 247 16.5 20.9 0.00 0.06 0.06 77 1007.9
20260507132005 49 251 13.0 19.1 0.00 0.06 0.06 80 1007.8
20260507131505 48 256 13.9 17.4 0.00 0.06 0.06 81 1007.7
20260507131005 47 238 10.4 13.9 0.00 0.06 0.06 83 1007.8
20260507130005 48 245 8.7 12.2 0.00 0.06 0.06 80 1008.2
20260507125504 49 239 8.7 15.6 0.00 0.06 0.06 76 1008.3
20260507125005 49 243 11.3 18.2 0.00 0.06 0.06 75 1008.1
20260507124505 49 272 14.8 18.2 0.00 0.06 0.06 74 1008.0
20260507124005 50 268 14.8 17.4 0.00 0.06 0.06 74 1007.9
20260507123505 49 285 13.9 20.9 0.00 0.06 0.06 76 1007.9
20260507122505 49 258 14.8 22.6 0.00 0.06 0.06 80 1008.2
20260507122005 49 282 15.6 22.6 0.00 0.06 0.06 78 1008.5
20260507121504 49 289 17.4 22.6 0.00 0.06 0.06 79 1008.5
20260507121005 49 285 14.8 22.6 0.00 0.06 0.06 78 1008.5
20260507120005 49 250 11.3 17.4 0.00 0.06 0.06 78 1007.8
20260507115505 49 249 10.4 14.8 0.00 0.06 0.06 79 1007.7
20260507115005 48 239 7.8 12.2 0.00 0.06 0.06 80 1007.4
20260507114505 48 241 7.8 13.0 0.00 0.06 0.06 81 1007.5
20260507114005 49 254 10.4 13.0 0.00 0.06 0.06 80 1007.6
20260507113005 49 249 8.7 14.8 0.00 0.06 0.06 79 1007.5
20260507112505 49 266 11.3 14.8 0.00 0.06 0.06 79 1007.7
20260507112005 49 249 11.3 13.9 0.00 0.06 0.06 79 1007.7
20260507111506 49 245 8.7 13.0 0.00 0.06 0.06 79 1007.6
20260507111004 49 262 8.7 13.0 0.00 0.06 0.06 80 1007.5
20260507105504 48 242 7.0 10.4 0.00 0.06 0.06 82 1008.1
20260507105005 48 248 7.0 10.4 0.00 0.06 0.06 84 1008.2
20260507104505 48 262 7.0 10.4 0.00 0.06 0.06 84 1007.9
20260507104005 48 268 4.3 10.4 0.00 0.06 0.06 84 1007.8
20260507103505 48 244 6.1 10.4 0.00 0.06 0.06 83 1007.8
20260507103004 49 243 7.0 10.4 0.00 0.06 0.06 82 1007.8
20260507102505 49 241 5.2 13.9 0.00 0.06 0.06 82 1007.7
20260507102006 49 242 8.7 13.9 0.00 0.06 0.06 81 1007.8
20260507101506 50 269 8.7 13.9 0.00 0.06 0.06 77 1008.0
20260507101004 50 257 11.3 14.8 0.00 0.06 0.06 76 1007.8
20260507100005 50 245 11.3 17.4 0.00 0.06 0.06 74 1007.9
20260507095504 51 254 11.3 17.4 0.00 0.06 0.06 74 1007.9
20260507095005 51 237 9.6 13.9 0.00 0.06 0.06 74 1007.7
20260507094505 51 242 10.4 13.9 0.00 0.06 0.06 73 1007.9
20260507094005 51 254 10.4 13.0 0.00 0.06 0.06 74 1008.0
20260507093505 50 236 8.7 13.0 0.00 0.06 0.06 75 1008.1
20260507093004 50 240 8.7 13.0 0.00 0.06 0.06 76 1008.1
20260507092505 50 245 10.4 13.9 0.00 0.06 0.06 76 1008.1
20260507091505 50 260 9.6 17.4 0.00 0.06 0.06 77 1008.3
20260507091004 50 249 11.3 17.4 0.00 0.06 0.06 78 1008.3
20260507090005 49 247 8.7 13.0 0.00 0.06 0.06 81 1008.5
20260507085505 49 267 9.6 13.0 0.00 0.06 0.06 82 1008.4
20260507085005 49 238 11.3 13.9 0.00 0.06 0.06 82 1008.0
20260507084504 49 245 8.7 13.9 0.00 0.06 0.06 83 1008.4
20260507084005 49 260 10.4 14.8 0.00 0.06 0.06 83 1008.6
20260507083505 49 243 10.4 14.8 0.00 0.06 0.06 83 1008.7
20260507083005 49 251 11.3 14.8 0.00 0.06 0.06 83 1009.0
20260507082505 49 241 6.1 10.4 0.00 0.06 0.06 84 1009.2
20260507082005 48 239 7.8 10.4 0.01 0.06 0.06 85 1009.1
20260507081505 48 245 7.8 10.4 0.01 0.06 0.06 85 1009.2
20260507081004 48 240 7.8 12.2 0.01 0.06 0.06 85 1009.3
20260507080004 49 226 5.2 8.7 0.02 0.06 0.06 84 1009.4
20260507075504 49 243 5.2 7.8 0.02 0.06 0.06 84 1009.6
20260507075004 49 200 4.3 7.8 0.03 0.06 0.06 84 1009.7
20260507074504 49 213 1.7 6.1 0.04 0.06 0.06 84 1009.7
20260507074004 49 205 2.6 6.1 0.06 0.06 0.06 84 1009.8
20260507073005 49 245 4.3 8.7 0.06 0.06 0.06 83 1010.0
20260507072505 49 272 4.3 10.4 0.06 0.06 0.06 82 1010.1
20260507072006 49 260 5.2 10.4 0.05 0.05 0.05 82 1010.1
20260507071504 49 282 3.5 6.1 0.05 0.05 0.05 82 1010.4
20260507071004 49 277 2.6 5.2 0.05 0.05 0.05 82 1010.3
20260507070009 50 260 1.7 6.1 0.04 0.04 0.04 79 1010.1